Weather History for Kiana, AK

Change the Weather History Date:

Saturday, June 1, 2013

  Actual Average (PASK) Record (PASK)
Temperature  
Mean Temperature 60 °F -  
Max Temperature 53 °F 49 °F 122 °F (2011)
Min Temperature 48 °F 33 °F 28 °F (2001)
Degree Days  
Heating Degree Days 5    
Growing Degree Days 10 (Base 50)    
Moisture  
Dew Point 30 °F    
Average Humidity 35    
Maximum Humidity 54    
Minimum Humidity 16    
Precipitation  
Precipitation 0.00 in - - ()
Sea Level Pressure  
Sea Level Pressure 30.29 in    
Wind  
Wind Speed 8 mph (ENE)    
Max Wind Speed 13 mph    
Max Gust Speed -    
Visibility 10 miles    
Events      
Averages and records for this station are not official NWS values.
T = Trace of Precipitation, MM = Missing Value Source: NWS Daily Summary

Daily Weather History Graph

Daily Weather History Graph

Search for Another Location

Airport:

Trip Planner

Search our weather history database for the weather conditions in past years. The results will help you decide how hot, cold, wet, or windy it might be!

Date:

Astronomy

Jun. 01, 2013 Rise Set
Actual Time 3:00 AM AKDT 2:07 AM AKDT
Civil Twilight Sun does not rise Sun does not rise
Nautical Twilight Sun does not rise Sun does not rise
Astronomical Twilight Sun does not rise Sun does not rise
Moon 3:17 AM AKDT (6/1) 4:00 PM AKDT (6/1)
Length of Visible Light 24h 00m
Length of Day
23h 07m
Last Quarter, 39% of the Moon is Illuminated
Jun 1
Last Quarter
Jun 8
New
Jun 16
First Quarter
Jun 23
Full
Jun 29
Last Quarter

Hourly Weather History & Observations

Time (AKDT) Temp. Dew Point Humidity Pressure Visibility Wind Dir Wind Speed Gust Speed Precip Events Conditions
12:01 AM 53.1 °F 27.0 °F 37% 30.35 in 10.0 mi North 9.2 mph - N/A   Clear
1:01 AM 51.1 °F 30.0 °F 44% 30.35 in 10.0 mi North 10.4 mph - N/A   Clear
2:01 AM 48.0 °F 30.0 °F 50% 30.36 in 10.0 mi North 8.1 mph - N/A   Clear
3:01 AM 48.0 °F 30.0 °F 50% 30.36 in 10.0 mi North 10.4 mph - N/A   Clear
4:01 AM 48.0 °F 32.0 °F 54% 30.36 in 10.0 mi NNW 12.7 mph - N/A   Clear
5:01 AM 48.0 °F 32.0 °F 54% 30.35 in 10.0 mi North 11.5 mph - N/A   Clear
6:01 AM 48.9 °F 32.0 °F 52% 30.34 in 10.0 mi North 11.5 mph - N/A   Clear
7:01 AM 52.0 °F 32.0 °F 47% 30.34 in 10.0 mi North 11.5 mph - N/A   Clear
8:01 AM 54.0 °F 33.1 °F 45% 30.34 in 10.0 mi North 8.1 mph - N/A   Clear
9:01 AM 53.1 °F 35.1 °F 50% 30.34 in 10.0 mi East 4.6 mph - N/A   Clear
10:01 AM 57.9 °F 34.0 °F 41% 30.34 in 10.0 mi East 4.6 mph - N/A   Clear
11:01 AM 60.1 °F 34.0 °F 38% 30.34 in 10.0 mi East 5.8 mph - N/A   Clear
12:01 PM 63.0 °F 32.0 °F 31% 30.32 in 10.0 mi East 9.2 mph - N/A   Clear
1:01 PM 66.0 °F 33.1 °F 29% 30.31 in 10.0 mi East 5.8 mph - N/A   Clear
2:01 PM 66.9 °F 30.0 °F 25% 30.30 in 10.0 mi ESE 4.6 mph - N/A   Clear
3:01 PM 68.0 °F 27.0 °F 21% 30.28 in 10.0 mi SE 10.4 mph - N/A   Clear
4:01 PM 70.0 °F 27.0 °F 20% 30.26 in 10.0 mi SSE 8.1 mph - N/A   Clear
5:01 PM 70.0 °F 27.0 °F 20% 30.24 in 9.0 mi SSE 6.9 mph - N/A   Clear
6:01 PM 71.1 °F 28.0 °F 20% 30.22 in 10.0 mi SSE 4.6 mph - N/A   Clear
7:01 PM 72.0 °F 27.0 °F 19% 30.20 in 8.0 mi SW 5.8 mph - N/A   Clear
8:01 PM 71.1 °F 28.0 °F 20% 30.19 in 10.0 mi SSW 4.6 mph - N/A   Clear
9:01 PM 70.0 °F 23.0 °F 17% 30.17 in 10.0 mi South 3.5 mph - N/A   Clear
10:01 PM 70.0 °F 21.9 °F 16% 30.16 in 10.0 mi Calm Calm - N/A   Clear
11:01 PM 66.9 °F 34.0 °F 30% 30.16 in 10.0 mi West 4.6 mph - N/A   Clear